Dewpoint
19 14 7 4 6 10 10 8 9 10 12 13 12 10 10 12 9 9 9 18 41 44 49 47 48 51 53 53 53 53 54 55 54 55 59 59 59 60 60 60 60 60 60 62 62 62 63 63 63 63 63 63 64 64 64 64 64 65 65 64 63 63 63 63 63 62 61 61 61 61 60 59 60 62 63 62 62 63 63 64 64 64 63 63 64 65
16 15 11 10 10 11 10 10 16 13 13 12 10 9 11 10 8 8 10 36 48 42 49 50 51 52 51 51 51 52 53 53 54 54 57 57 59 59 59 59 59 59 60 61 61 61 61 61 61 62 62 62 62 62 63 62 62 62 62 62 62 62 62 63 63 63 64 63 62 61 60 60 60 61 62 62 62 63 63 63 63 63 63 64 64 65
16 9 15 16 15 12 12 15 13 14 14 13 11 13 10 9 9 15 39 48 49 50 50 51 49 50 51 51 53 52 52 53 55 53 54 55 56 57 57 58 58 58 58 59 60 60 60 60 60 60 60 60 61 61 61 61 61 61 61 61 61 62 62 62 64 62 62 63 64 62 61 61 62 62 62 62 63 63 63 63 63 64 63 63 63 64
20 19 21 19 15 12 14 14 12 17 21 16 13 11 10 12 12 17 36 48 50 50 50 50 48 49 51 52 52 53 53 53 55 54 54 55 56 56 56 57 57 57 57 58 58 58 59 59 59 59 59 60 60 60 60 60 60 60 61 60 60 60 61 62 63 63 62 63 62 62 62 63 62 62 63 62 62 62 62 62 63 63 63 63 63 63
19 18 22 17 13 13 14 16 15 15 12 20 15 13 13 11 11 28 40 47 50 51 51 49 48 48 50 49 51 52 54 53 54 53 53 56 56 56 56 57 58 57 57 57 57 58 58 58 58 58 58 59 58 59 59 59 59 59 59 60 60 60 60 60 62 62 62 62 60 61 61 61 60 60 61 61 61 61 62 62 62 62 63 63 63 63
19 19 20 17 14 13 13 13 15 14 12 13 17 11 12 24 44 45 45 45 45 47 48 47 41 42 47 49 50 51 52 52 54 53 53 54 55 55 54 55 56 57 57 57 57 57 57 57 58 58 57 58 58 58 59 59 58 58 59 59 59 59 60 60 60 61 61 60 60 59 59 58 58 58 59 59 59 60 60 61 62 62 62 62 62 62
19 21 19 17 15 14 13 13 14 11 14 12 11 13 15 41 45 43 43 42 39 40 47 46 33 34 45 47 48 50 51 51 53 53 53 54 54 54 54 55 55 56 56 56 56 56 56 56 57 57 56 57 57 58 59 58 57 57 57 58 58 59 59 59 59 59 60 58 58 58 59 58 58 58 58 59 60 60 60 60 61 61 61 61 61 60
20 19 19 18 16 14 14 13 14 11 11 9 11 12 24 44 43 41 39 37 39 42 44 43 39 37 39 44 48 50 49 50 50 51 52 53 54 54 54 54 55 55 55 55 55 55 56 56 56 56 56 57 57 57 57 57 57 56 56 57 57 57 58 58 59 59 59 57 57 57 58 59 58 58 58 59 59 59 60 59 59 59 60 60 59 59
22 19 18 17 17 14 13 14 13 11 9 10 13 11 17 41 42 41 35 37 37 37 36 41 41 36 39 44 49 50 47 48 49 50 51 52 53 54 54 55 55 55 55 55 55 55 54 54 54 55 55 56 57 56 56 56 55 55 55 55 55 55 55 55 57 57 57 58 57 57 57 56 57 57 57 57 57 57 58 57 57 57 58 58 58 57
18 18 18 17 16 15 15 13 12 9 8 9 13 13 13 14 33 40 33 33 34 27 25 39 39 29 29 45 46 49 47 47 48 49 51 52 52 53 53 54 54 55 54 54 55 55 55 54 54 55 55 54 54 55 55 54 54 54 54 54 54 54 54 54 55 55 55 55 55 54 54 53 53 53 53 54 53 54 54 54 54 55 55 55 55 55
16 26 24 17 16 16 14 11 11 10 11 11 12 9 9 17 21 27 27 31 30 25 27 37 39 31 26 42 45 45 46 47 48 49 50 52 53 53 53 53 53 54 54 53 54 54 54 54 53 53 53 53 53 53 53 53 53 54 53 53 52 53 53 53 53 54 54 54 54 53 53 52 52 52 51 51 50 51 51 51 51 52 52 52 52 53
17 21 19 17 25 18 14 11 11 11 10 9 8 7 5 12 14 15 23 25 20 20 24 34 40 33 25 28 45 47 48 48 48 48 50 51 51 52 52 53 53 53 53 53 53 53 52 52 52 52 52 52 52 52 52 52 53 53 53 52 51 51 51 51 52 52 52 52 52 52 52 52 51 51 50 49 49 49 49 49 49 49 50 49 50 50
18 16 17 17 29 16 15 11 9 9 9 8 11 9 7 11 7 2 19 12 13 15 19 28 37 32 31 30 41 47 48 49 49 49 50 51 51 52 52 52 52 53 52 52 52 52 52 51 51 51 51 51 51 51 51 52 52 52 51 51 50 51 51 50 50 50 50 50 50 50 50 50 51 50 50 49 48 48 47 47 47 47 47 47 47 48
18 19 18 17 18 22 15 13 7 9 9 7 8 10 6 5 1 -2 8 11 17 18 24 31 36 31 32 36 42 43 47 50 51 51 52 51 51 51 51 51 52 52 51 51 52 51 51 51 51 50 50 50 50 50 51 51 51 51 51 51 50 50 50 50 50 50 49 49 49 49 49 49 49 49 49 48 47 46 46 46 46 46 46 46 46 47
12 13 15 14 13 15 15 13 10 12 8 7 10 8 10 13 5 -1 9 4 9 16 23 32 33 26 29 34 44 45 46 51 51 51 51 51 51 51 51 51 51 51 51 51 51 51 50 50 50 51 51 50 50 50 50 50 50 50 50 50 50 50 50 49 49 49 49 48 48 48 48 49 49 48 47 47 47 46 45 45 45 45 46 46 46 46
13 16 18 16 15 13 13 13 10 7 6 7 9 9 10 9 19 6 15 14 17 20 22 30 31 37 38 46 47 48 50 50 51 50 50 49 49 50 50 50 50 50 50 51 50 50 50 50 50 50 50 49 49 49 50 50 50 50 50 49 49 49 49 49 49 48 47 47 48 47 47 47 49 49 47 46 46 45 45 45 45 44 45 45 45 45
15 15 19 18 15 12 11 11 10 7 9 12 7 9 9 14 19 15 14 21 17 18 18 32 36 40 46 46 46 49 49 49 49 49 49 49 49 49 49 49 49 50 50 49 49 49 49 49 49 49 49 48 49 49 49 50 50 49 49 48 48 48 48 48 48 47 47 47 46 46 47 46 46 46 45 45 45 45 45 45 44 44 44 44 44 44
15 18 20 16 15 14 12 11 9 8 13 8 8 9 16 20 20 14 9 11 10 12 17 33 34 36 35 32 46 47 47 48 48 48 48 48 48 48 48 48 49 49 49 49 49 49 48 48 47 47 47 47 48 48 49 49 49 49 48 48 47 47 47 47 47 47 47 47 46 46 46 46 46 46 46 45 45 45 44 44 44 44 44 43 44 44
20 12 16 15 16 16 11 10 8 8 10 6 8 12 6 8 5 14 16 5 6 7 18 30 36 36 36 35 43 44 46 46 46 46 47 47 47 47 47 48 49 48 49 48 47 47 46 46 46 46 46 47 48 48 48 48 48 48 48 47 47 47 47 47 47 47 47 47 47 47 47 46 46 46 46 46 45 45 44 44 44 44 44 43 44 43
24 13 16 18 15 15 10 8 12 8 9 12 11 8 19 14 17 14 13 13 14 11 17 22 35 31 38 38 43 44 47 46 46 45 46 46 47 47 47 47 48 48 48 46 46 45 45 45 45 45 45 46 47 47 48 48 47 47 47 47 46 46 46 46 46 46 46 46 46 46 46 46 47 48 47 46 45 45 44 44 44 44 43 43 43 42
15 22 10 18 18 14 12 11 11 9 9 10 10 9 13 18 19 14 18 15 16 18 17 23 28 32 35 40 42 44 46 46 45 45 46 46 46 46 47 47 47 47 46 45 45 44 44 44 44 44 45 46 47 48 47 47 46 46 46 46 45 45 45 45 45 45 45 45 44 45 44 44 45 45 46 46 47 45 45 45 46 44 44 43 43 42
15 16 18 23 14 14 15 16 12 8 8 9 11 10 10 14 10 6 11 22 26 23 22 25 22 28 33 42 43 45 46 46 46 46 45 45 46 46 46 46 47 46 45 44 43 43 43 43 43 43 44 45 45 46 46 46 46 46 46 46 45 45 44 44 44 44 44 44 43 43 43 43 43 43 43 43 43 44 45 45 44 45 44 43 43 42
19 22 19 12 17 16 12 14 15 10 9 9 9 10 11 16 13 10 8 13 23 26 29 26 20 22 34 41 42 45 46 45 45 45 45 45 45 46 46 46 45 44 44 43 42 42 42 42 42 42 43 43 44 45 45 46 46 45 45 45 44 44 44 44 44 44 43 43 43 42 43 42 42 42 42 42 42 42 42 42 42 43 42 42 42 42
32 13 16 17 17 18 16 16 17 14 9 9 8 15 12 14 14 11 16 19 18 25 24 20 15 23 35 43 43 45 45 45 45 45 45 45 45 45 45 44 43 42 42 41 41 42 41 41 41 41 41 42 43 44 45 45 45 45 45 44 44 43 43 44 44 44 43 43 42 42 42 42 42 42 41 41 42 42 42 42 42 43 41 41 41 41
6 13 16 12 10 13 17 15 12 13 13 18 16 18 13 15 20 24 23 22 17 27 25 20 15 26 40 43 44 44 44 44 44 45 45 45 45 45 43 42 41 41 40 40 40 40 40 40 40 40 41 41 42 43 44 44 44 44 44 44 44 44 44 44 44 43 43 42 42 42 42 42 42 42 42 41 41 41 41 41 41 42 41 41 40 40
12 20 14 11 10 9 9 11 14 12 14 19 24 18 18 13 19 15 11 14 11 19 23 18 23 34 42 42 43 43 43 43 44 44 45 45 45 44 42 41 40 40 39 39 39 39 39 39 40 40 40 41 42 42 43 43 43 43 43 43 44 44 44 44 44 43 43 42 42 42 42 42 42 42 42 43 42 42 41 41 41 41 41 41 40 40
14 24 18 20 17 16 18 20 23 23 14 11 16 17 17 19 18 19 21 16 14 18 24 27 35 36 38 41 42 42 43 43 43 44 44 44 44 43 41 40 40 39 39 38 39 39 39 39 39 39 40 40 41 41 42 42 42 42 42 42 42 42 42 42 41 41 41 40 40 40 41 41 41 41 41 41 42 42 41 41 41 41 41 42 40 40
25 18 20 21 21 19 22 22 24 26 16 16 15 18 16 16 23 20 17 17 23 24 20 33 39 37 38 40 41 42 42 43 43 43 44 44 43 42 40 39 41 38 38 38 38 38 38 38 38 39 39 40 40 40 40 40 40 40 40 40 41 41 41 41 39 38 38 37 37 38 38 39 40 41 41 41 41 41 41 40 40 40 41 41 40 40
20 14 20 20 18 32 32 30 34 33 32 23 13 17 19 19 22 19 19 24 23 16 15 32 38 36 39 41 42 42 42 42 43 43 43 42 42 40 39 39 38 37 37 37 37 37 38 38 38 38 39 39 39 39 39 39 39 39 39 39 39 39 39 38 37 36 36 36 36 36 37 38 39 39 40 40 40 40 40 40 40 39 39 39 39 41
15 12 24 22 27 32 34 34 34 33 32 32 32 30 28 21 21 21 26 30 23 22 26 35 38 36 39 41 42 42 43 43 43 43 42 41 41 40 38 38 37 37 37 37 37 37 37 37 38 38 38 38 38 38 38 38 38 38 38 37 37 37 37 36 36 35 35 35 35 36 36 37 38 38 38 38 38 39 39 39 39 39 38 38 38 38
15 12 31 29 26 28 32 33 34 33 32 30 32 31 31 30 31 30 32 34 35 33 34 36 37 35 37 42 42 43 43 43 42 41 41 41 40 39 38 37 37 37 37 37 37 37 37 37 37 38 37 37 37 37 37 37 37 37 37 36 36 36 36 35 35 35 34 34 35 35 35 36 36 36 36 36 36 37 37 37 38 38 37 38 37 37
21 15 30 27 22 24 31 31 31 32 31 30 30 32 31 28 24 31 28 31 28 31 35 37 35 34 36 42 42 42 42 42 41 40 40 40 40 39 38 37 37 37 37 37 37 37 37 37 37 37 37 37 37 37 37 37 37 36 36 36 36 37 36 35 35 34 34 34 34 34 34 34 34 34 34 35 35 35 35 35 35 35 35 36 37 37
22 29 27 24 21 20 31 30 29 25 24 22 24 32 34 32 31 33 33 36 34 37 36 33 34 37 40 42 41 41 42 41 41 40 40 40 39 38 38 37 37 37 37 37 37 37 37 37 37 37 37 37 37 37 37 37 36 36 36 36 37 36 35 34 34 33 33 33 33 32 33 33 33 33 34 34 34 34 34 33 33 33 34 34 36 35
30 31 27 28 19 22 31 30 27 23 15 20 30 37 36 32 31 32 33 34 36 36 34 35 34 40 41 41 41 41 41 41 41 40 40 39 39 38 38 38 37 37 37 37 37 37 36 37 37 37 37 37 37 37 37 37 36 36 37 37 36 34 34 34 33 32 32 32 32 32 32 33 33 33 33 33 33 33 32 32 32 33 34 34 34 34
30 29 27 29 28 27 28 27 23 16 20 29 36 35 36 36 34 35 35 35 34 33 35 36 39 40 41 42 42 42 42 42 41 40 40 40 39 38 38 38 37 37 37 37 36 36 36 37 37 37 37 37 37 37 37 37 37 36 35 35 34 34 34 33 32 32 32 32 32 32 33 33 33 33 32 32 32 32 32 32 32 32 34 32 32 32
29 28 26 26 23 27 26 20 17 18 28 34 34 34 36 36 35 35 34 35 34 34 35 36 39 40 41 41 42 42 41 41 40 41 40 40 39 38 38 37 37 37 36 36 36 36 36 37 36 36 36 38 38 37 36 36 36 35 35 35 34 34 33 33 32 32 32 32 32 32 32 32 32 32 32 32 32 32 31 31 32 32 33 33 31 32
31 31 30 26 26 26 25 24 22 29 29 31 33 34 36 34 36 32 29 32 35 33 35 37 39 40 41 41 41 40 40 40 39 39 40 40 40 39 38 38 37 37 37 36 36 36 37 37 37 37 38 37 36 36 36 35 35 35 35 34 35 34 34 33 32 33 34 33 33 33 33 33 33 33 32 32 32 31 31 31 31 32 35 31 31 31
33 28 29 29 24 26 26 23 24 22 21 26 32 35 38 36 36 34 32 30 33 34 37 40 40 40 40 40 40 40 40 39 38 38 39 40 40 39 38 38 38 37 37 36 37 37 37 37 37 38 36 36 35 35 35 35 35 35 34 34 34 34 33 33 33 34 34 33 35 34 34 34 34 34 34 32 32 31 31 32 32 32 33 31 30 31
32 32 30 26 28 26 22 23 21 21 23 30 32 36 38 38 37 35 30 27 32 37 38 40 40 40 40 39 39 40 39 37 37 38 39 39 38 37 37 37 36 36 36 36 36 36 36 37 37 37 36 35 35 35 35 34 34 34 34 35 34 33 33 33 33 34 33 33 34 34 34 34 34 33 33 33 32 33 32 32 33 34 32 31 31 31
30 27 27 29 24 23 23 20 18 19 19 28 31 36 38 38 36 30 21 25 34 38 40 41 40 40 40 39 39 40 39 37 38 38 39 38 37 37 36 36 36 36 35 36 36 36 36 37 37 35 34 34 34 35 34 34 34 35 34 34 33 33 32 33 34 33 33 34 35 34 35 36 36 34 33 32 32 33 33 35 31 31 31 31 31 31
24 25 27 27 25 23 22 18 18 20 27 30 32 37 38 38 31 24 21 26 34 39 40 41 41 40 40 39 40 39 40 39 38 38 38 37 36 36 36 36 35 35 35 35 35 38 36 35 34 34 34 34 34 34 34 34 34 35 35 33 33 32 33 33 34 34 34 34 34 35 34 33 34 34 33 33 33 34 34 32 31 31 31 31 31 31
25 25 26 24 24 23 19 24 24 20 28 33 36 39 39 33 26 27 31 33 38 40 41 41 40 40 39 39 40 38 36 37 38 37 36 36 36 35 35 35 35 35 35 36 37 36 34 33 33 33 33 34 34 34 34 34 34 34 34 32 32 33 33 34 34 34 34 34 34 34 34 33 34 35 35 36 33 31 31 32 32 33 31 30 30 31
29 26 24 23 23 24 17 19 18 17 23 38 38 36 36 29 31 32 34 37 39 40 40 40 40 39 39 38 36 36 36 36 36 36 36 35 35 35 34 34 34 34 35 35 34 34 33 32 33 33 33 34 34 34 34 33 33 33 34 31 32 33 33 34 34 34 34 34 34 35 34 35 35 35 35 34 34 31 31 31 31 31 32 31 31 31
32 27 24 25 27 25 19 20 21 27 31 39 37 34 36 35 35 35 37 37 38 40 40 39 38 39 39 37 36 36 36 36 36 36 35 35 34 34 34 34 34 35 35 34 33 33 33 32 33 33 34 34 34 33 33 33 33 34 32 31 32 33 35 35 34 34 34 35 34 35 36 36 36 34 34 35 34 34 31 31 32 32 31 31 31 31
30 28 30 29 30 25 24 26 27 31 35 35 35 35 35 36 36 37 38 40 39 39 38 39 38 38 37 36 36 36 36 36 35 35 34 34 34 33 33 33 34 34 33 33 33 34 32 32 32 33 33 33 32 32 32 33 33 34 32 31 34 34 34 34 34 34 34 34 34 35 35 35 34 33 33 33 33 33 33 32 32 31 30 32 31 31
35 33 32 32 30 32 32 32 33 34 34 35 35 35 35 36 37 37 39 39 38 40 39 38 37 37 36 36 36 36 35 35 34 34 34 33 33 33 34 33 34 34 33 33 33 33 32 32 32 32 33 32 32 32 33 32 32 33 32 32 34 34 34 34 35 34 34 34 34 34 34 34 33 34 33 33 33 34 32 33 33 32 31 30 31 31
34 35 32 30 31 29 26 31 33 33 34 34 35 35 36 36 36 37 38 39 39 39 38 37 37 36 36 36 36 35 35 34 34 34 34 33 33 33 33 34 34 33 33 35 33 33 32 32 32 32 33 32 33 32 32 31 31 31 32 33 33 33 34 34 34 35 34 34 34 33 34 33 33 33 34 33 32 34 35 34 31 31 33 31 30 31
31 34 32 30 29 26 26 32 35 34 34 34 34 34 35 36 36 37 37 38 39 38 37 36 36 36 36 36 35 35 34 34 33 33 33 32 32 32 32 33 34 35 36 35 33 33 32 32 31 32 32 33 33 32 32 30 30 32 33 33 32 33 33 34 34 33 32 32 33 34 34 34 34 34 33 32 31 31 31 31 31 30 32 31 31 31
32 34 28 30 30 30 32 33 34 35 34 34 35 35 35 36 37 37 38 38 37 36 36 36 36 36 35 35 35 34 34 33 33 33 32 32 33 33 34 36 37 38 36 34 33 33 32 31 32 33 32 33 33 32 31 31 32 32 32 33 33 33 33 33 33 33 32 32 33 33 35 35 35 34 33 32 32 31 30 31 31 31 31 30 31 31
33 31 32 31 30 29 31 33 35 32 31 33 34 35 35 36 37 37 37 37 36 36 35 35 35 35 35 35 34 34 33 33 33 32 32 33 34 36 37 37 37 38 37 34 33 32 32 33 33 33 33 33 32 32 31 31 32 33 32 33 32 32 32 33 32 31 31 32 32 33 34 34 34 33 33 32 32 31 32 32 33 32 31 30 35 35
32 33 33 31 31 29 33 34 35 33 32 33 35 35 36 36 37 37 37 36 36 36 35 35 35 34 34 34 34 34 33 33 33 33 33 34 35 37 36 35 36 38 35 33 33 33 32 33 34 33 33 33 33 32 32 32 32 32 33 33 32 32 32 32 32 32 31 32 32 33 34 34 33 33 33 32 31 31 32 32 32 33 34 34 34 34